GFSNE_prec_precacc_021.txt.gz
Total_Precipitation_Accumulation
0.17 0.14 0.11 0.08 0.06 0.04 0.02 0.01 0.01 0.00 0.00 0.00 0.00 0.00 0.00 0.02 0.04 0.15 0.24 0.19 0.14 0.12 0.12 0.12 0.12 0.20 0.36 0.36 0.38 0.58 0.81 0.90 0.78 0.68 0.56 0.53 0.61 0.66
0.01 0.01 0.01 0.00 0.00 0.00 0.00 0.00 0.00 0.00 0.00 0.00 0.00 0.00 0.00 0.03 0.07 0.15 0.31 0.41 0.25 0.19 0.20 0.20 0.21 0.20 0.19 0.37 0.62 0.64 0.66 0.76 0.84 0.87 0.89 0.68 0.61 0.64
0.00 0.00 0.00 0.00 0.00 0.00 0.01 0.01 0.01 0.01 0.01 0.00 0.00 0.00 0.00 0.01 0.03 0.10 0.22 0.41 0.52 0.36 0.23 0.25 0.27 0.28 0.31 0.26 0.32 0.66 0.93 0.77 0.62 0.64 0.68 0.76 0.79 0.70
0.00 0.00 0.00 0.00 0.00 0.00 0.01 0.01 0.01 0.01 0.02 0.00 0.00 0.00 0.00 0.00 0.00 0.02 0.10 0.24 0.42 0.53 0.49 0.31 0.24 0.28 0.33 0.43 0.42 0.38 0.49 0.89 0.84 0.64 0.59 0.66 0.76 0.89
0.00 0.00 0.00 0.00 0.00 0.00 0.00 0.01 0.01 0.01 0.01 0.01 0.00 0.00 0.00 0.00 0.00 0.01 0.03 0.07 0.16 0.30 0.43 0.55 0.44 0.27 0.25 0.30 0.39 0.48 0.43 0.38 0.64 0.85 0.67 0.59 0.59 0.68
0.00 0.00 0.00 0.00 0.00 0.00 0.00 0.00 0.01 0.02 0.02 0.02 0.00 0.00 0.00 0.00 0.01 0.02 0.03 0.05 0.05 0.13 0.30 0.49 0.55 0.48 0.31 0.23 0.27 0.30 0.38 0.50 0.47 0.54 0.83 0.76 0.62 0.60
0.00 0.00 0.00 0.00 0.00 0.00 0.00 0.00 0.01 0.02 0.02 0.03 0.02 0.02 0.01 0.01 0.02 0.03 0.03 0.04 0.06 0.08 0.18 0.36 0.52 0.59 0.60 0.37 0.21 0.23 0.29 0.32 0.41 0.49 0.52 0.70 0.81 0.62
0.01 0.00 0.00 0.00 0.00 0.00 0.00 0.00 0.00 0.02 0.05 0.06 0.05 0.04 0.02 0.01 0.02 0.05 0.06 0.04 0.05 0.07 0.10 0.23 0.39 0.51 0.65 0.67 0.48 0.34 0.27 0.31 0.33 0.38 0.48 0.48 0.51 0.72
0.01 0.01 0.01 0.00 0.00 0.01 0.00 0.01 0.01 0.01 0.02 0.03 0.07 0.04 0.03 0.01 0.03 0.08 0.07 0.06 0.04 0.03 0.07 0.16 0.29 0.40 0.48 0.67 0.71 0.51 0.44 0.45 0.47 0.45 0.45 0.51 0.47 0.45
0.01 0.01 0.01 0.01 0.01 0.01 0.03 0.06 0.04 0.02 0.01 0.00 0.01 0.01 0.00 0.01 0.03 0.05 0.08 0.08 0.05 0.02 0.05 0.13 0.21 0.32 0.36 0.44 0.66 0.85 0.73 0.61 0.63 0.68 0.63 0.56 0.61 0.55
0.01 0.01 0.02 0.04 0.02 0.01 0.13 0.26 0.12 0.04 0.02 0.03 0.02 0.01 0.01 0.01 0.02 0.13 0.17 0.18 0.13 0.04 0.04 0.08 0.11 0.21 0.34 0.48 0.62 0.69 0.88 0.96 0.79 0.75 0.78 0.69 0.63 0.67
0.04 0.02 0.02 0.02 0.02 0.04 0.22 0.29 0.26 0.06 0.02 0.04 0.05 0.03 0.02 0.02 0.03 0.17 0.24 0.20 0.15 0.12 0.04 0.06 0.07 0.11 0.27 0.44 0.47 0.68 0.79 0.85 0.93 0.86 0.74 0.75 0.72 0.71
0.07 0.04 0.04 0.05 0.12 0.12 0.16 0.27 0.17 0.05 0.05 0.08 0.09 0.08 0.04 0.02 0.01 0.02 0.10 0.24 0.23 0.12 0.00 0.03 0.05 0.08 0.14 0.24 0.39 0.47 0.56 0.76 0.85 0.94 0.94 0.81 0.74 0.68
0.16 0.09 0.09 0.09 0.12 0.12 0.13 0.16 0.11 0.14 0.21 0.21 0.17 0.11 0.10 0.04 0.00 0.01 0.02 0.06 0.10 0.11 0.04 0.02 0.03 0.03 0.08 0.18 0.23 0.43 0.55 0.64 0.67 0.82 0.92 0.99 0.94 0.87
0.17 0.13 0.09 0.05 0.04 0.05 0.05 0.09 0.13 0.22 0.23 0.20 0.17 0.09 0.05 0.05 0.06 0.09 0.10 0.10 0.15 0.16 0.11 0.10 0.08 0.05 0.07 0.11 0.14 0.23 0.37 0.60 0.66 0.65 0.71 0.76 0.74 0.73
0.08 0.06 0.04 0.05 0.07 0.10 0.13 0.14 0.24 0.31 0.28 0.20 0.11 0.10 0.12 0.14 0.14 0.12 0.18 0.19 0.31 0.26 0.22 0.19 0.14 0.14 0.19 0.12 0.06 0.14 0.19 0.33 0.48 0.58 0.62 0.69 0.69 0.65
0.10 0.08 0.06 0.04 0.03 0.04 0.09 0.06 0.06 0.08 0.13 0.12 0.12 0.11 0.19 0.13 0.12 0.20 0.22 0.19 0.30 0.19 0.18 0.23 0.29 0.30 0.23 0.16 0.17 0.13 0.14 0.19 0.29 0.39 0.49 0.58 0.66 0.72
0.10 0.08 0.06 0.06 0.07 0.07 0.11 0.15 0.06 0.06 0.06 0.07 0.14 0.11 0.15 0.19 0.11 0.10 0.15 0.20 0.15 0.21 0.20 0.19 0.26 0.41 0.42 0.31 0.15 0.09 0.13 0.15 0.21 0.28 0.33 0.40 0.48 0.52
0.08 0.09 0.09 0.09 0.08 0.08 0.10 0.14 0.18 0.19 0.13 0.12 0.16 0.18 0.11 0.14 0.22 0.16 0.17 0.27 0.25 0.17 0.24 0.27 0.26 0.24 0.21 0.13 0.14 0.11 0.11 0.10 0.17 0.26 0.34 0.35 0.32 0.38
0.09 0.10 0.11 0.10 0.09 0.08 0.09 0.12 0.14 0.15 0.14 0.14 0.21 0.15 0.10 0.05 0.08 0.12 0.14 0.14 0.16 0.16 0.13 0.18 0.21 0.22 0.21 0.17 0.21 0.24 0.18 0.12 0.15 0.20 0.31 0.37 0.41 0.44
0.11 0.10 0.12 0.10 0.09 0.09 0.09 0.09 0.11 0.13 0.14 0.15 0.16 0.14 0.09 0.07 0.06 0.06 0.06 0.06 0.08 0.10 0.14 0.18 0.18 0.16 0.16 0.18 0.18 0.25 0.32 0.25 0.14 0.12 0.16 0.27 0.28 0.27
0.14 0.14 0.12 0.12 0.10 0.07 0.08 0.08 0.08 0.09 0.08 0.08 0.12 0.10 0.10 0.09 0.07 0.08 0.08 0.07 0.10 0.11 0.09 0.11 0.13 0.09 0.07 0.05 0.05 0.09 0.20 0.28 0.20 0.13 0.13 0.09 0.10 0.12
0.13 0.13 0.10 0.08 0.08 0.08 0.07 0.06 0.05 0.07 0.08 0.08 0.07 0.10 0.11 0.13 0.14 0.11 0.09 0.07 0.07 0.07 0.07 0.09 0.11 0.07 0.04 0.04 0.05 0.07 0.10 0.11 0.12 0.07 0.07 0.10 0.07 0.09

GFSNE_prec_precacc_024.txt.gz
Total_Precipitation_Accumulation
0.19 0.16 0.15 0.13 0.11 0.09 0.06 0.05 0.05 0.01 0.00 0.00 0.00 0.00 0.00 0.02 0.04 0.15 0.24 0.19 0.14 0.12 0.12 0.12 0.12 0.20 0.36 0.36 0.38 0.58 0.81 0.90 0.78 0.68 0.56 0.53 0.62 0.69
0.02 0.02 0.02 0.01 0.01 0.01 0.01 0.00 0.00 0.00 0.00 0.00 0.00 0.00 0.00 0.03 0.07 0.15 0.31 0.41 0.25 0.19 0.20 0.20 0.21 0.20 0.19 0.37 0.62 0.64 0.66 0.76 0.84 0.87 0.89 0.68 0.61 0.65
0.00 0.00 0.00 0.00 0.00 0.00 0.01 0.01 0.01 0.01 0.01 0.00 0.00 0.00 0.00 0.01 0.03 0.10 0.22 0.41 0.52 0.36 0.23 0.25 0.27 0.28 0.31 0.26 0.32 0.66 0.93 0.77 0.62 0.64 0.68 0.76 0.79 0.71
0.00 0.00 0.00 0.00 0.00 0.00 0.01 0.01 0.01 0.01 0.02 0.00 0.00 0.00 0.00 0.00 0.00 0.02 0.10 0.24 0.42 0.53 0.49 0.31 0.24 0.28 0.33 0.43 0.42 0.38 0.49 0.89 0.84 0.64 0.59 0.66 0.76 0.89
0.00 0.00 0.00 0.00 0.00 0.00 0.00 0.01 0.01 0.01 0.01 0.01 0.00 0.00 0.00 0.00 0.00 0.01 0.03 0.07 0.16 0.30 0.43 0.55 0.44 0.27 0.25 0.30 0.39 0.48 0.43 0.38 0.64 0.85 0.67 0.59 0.59 0.68
0.00 0.00 0.00 0.00 0.00 0.00 0.00 0.00 0.01 0.02 0.02 0.02 0.00 0.00 0.00 0.00 0.01 0.02 0.03 0.05 0.05 0.13 0.30 0.49 0.55 0.48 0.31 0.23 0.27 0.30 0.38 0.50 0.47 0.54 0.83 0.76 0.62 0.60
0.00 0.00 0.00 0.00 0.00 0.00 0.00 0.00 0.01 0.02 0.02 0.04 0.03 0.02 0.01 0.01 0.02 0.03 0.03 0.04 0.06 0.08 0.18 0.36 0.52 0.59 0.60 0.37 0.21 0.23 0.29 0.32 0.41 0.49 0.52 0.70 0.81 0.62
0.01 0.00 0.00 0.00 0.00 0.00 0.00 0.00 0.00 0.03 0.05 0.06 0.06 0.04 0.02 0.01 0.02 0.05 0.06 0.05 0.06 0.08 0.10 0.23 0.40 0.51 0.65 0.67 0.48 0.34 0.27 0.31 0.33 0.38 0.48 0.48 0.51 0.72
0.01 0.01 0.01 0.00 0.00 0.01 0.01 0.01 0.01 0.01 0.02 0.04 0.07 0.05 0.03 0.02 0.04 0.09 0.08 0.07 0.05 0.03 0.08 0.17 0.29 0.41 0.48 0.67 0.72 0.51 0.44 0.45 0.47 0.46 0.45 0.51 0.47 0.46
0.01 0.01 0.01 0.01 0.01 0.01 0.03 0.07 0.05 0.03 0.01 0.01 0.02 0.02 0.01 0.01 0.03 0.06 0.09 0.09 0.07 0.02 0.06 0.15 0.22 0.33 0.36 0.44 0.66 0.86 0.73 0.61 0.63 0.68 0.63 0.56 0.61 0.55
0.01 0.01 0.02 0.04 0.02 0.02 0.15 0.28 0.13 0.05 0.03 0.03 0.03 0.01 0.01 0.01 0.02 0.15 0.21 0.22 0.16 0.05 0.05 0.10 0.12 0.22 0.35 0.49 0.63 0.69 0.88 0.96 0.79 0.75 0.78 0.69 0.63 0.67
0.04 0.03 0.02 0.02 0.03 0.05 0.26 0.32 0.27 0.06 0.02 0.05 0.05 0.03 0.02 0.03 0.03 0.19 0.28 0.25 0.18 0.14 0.04 0.08 0.09 0.12 0.28 0.44 0.48 0.68 0.80 0.85 0.93 0.86 0.74 0.75 0.72 0.71
0.08 0.04 0.05 0.07 0.12 0.14 0.16 0.28 0.18 0.05 0.06 0.08 0.10 0.09 0.05 0.03 0.02 0.03 0.12 0.27 0.26 0.14 0.00 0.06 0.07 0.09 0.16 0.26 0.41 0.48 0.57 0.77 0.86 0.94 0.94 0.81 0.74 0.69
0.18 0.12 0.12 0.10 0.12 0.12 0.13 0.16 0.12 0.15 0.22 0.23 0.19 0.13 0.12 0.05 0.02 0.02 0.03 0.07 0.11 0.13 0.04 0.08 0.06 0.05 0.10 0.20 0.24 0.44 0.57 0.65 0.67 0.82 0.92 0.99 0.94 0.87
0.19 0.16 0.10 0.05 0.04 0.05 0.05 0.09 0.13 0.23 0.24 0.21 0.18 0.10 0.06 0.06 0.07 0.11 0.12 0.12 0.17 0.18 0.13 0.14 0.12 0.06 0.11 0.14 0.16 0.24 0.40 0.62 0.66 0.66 0.73 0.77 0.75 0.73
0.10 0.09 0.05 0.06 0.07 0.10 0.13 0.14 0.25 0.32 0.29 0.21 0.12 0.11 0.13 0.15 0.15 0.13 0.19 0.21 0.33 0.27 0.24 0.20 0.16 0.17 0.24 0.15 0.08 0.16 0.22 0.37 0.51 0.59 0.64 0.71 0.70 0.65
0.13 0.11 0.08 0.06 0.04 0.05 0.09 0.06 0.06 0.08 0.14 0.13 0.13 0.12 0.20 0.14 0.13 0.20 0.23 0.20 0.31 0.21 0.20 0.25 0.30 0.31 0.26 0.19 0.22 0.15 0.15 0.21 0.31 0.40 0.50 0.59 0.66 0.72
0.13 0.10 0.09 0.09 0.09 0.07 0.11 0.15 0.07 0.06 0.06 0.08 0.14 0.12 0.16 0.21 0.13 0.11 0.15 0.21 0.16 0.22 0.22 0.22 0.28 0.44 0.45 0.33 0.16 0.10 0.16 0.17 0.23 0.29 0.34 0.41 0.48 0.53
0.11 0.12 0.12 0.13 0.11 0.09 0.10 0.15 0.19 0.20 0.14 0.13 0.16 0.18 0.11 0.14 0.23 0.17 0.18 0.28 0.26 0.17 0.25 0.29 0.28 0.27 0.25 0.17 0.16 0.12 0.13 0.13 0.20 0.29 0.34 0.35 0.32 0.39
0.11 0.13 0.14 0.13 0.11 0.09 0.09 0.12 0.14 0.15 0.14 0.15 0.21 0.15 0.11 0.06 0.09 0.13 0.15 0.15 0.17 0.17 0.14 0.19 0.22 0.24 0.27 0.25 0.26 0.24 0.19 0.13 0.19 0.24 0.32 0.38 0.41 0.44
0.13 0.12 0.14 0.12 0.10 0.10 0.10 0.10 0.12 0.14 0.15 0.16 0.17 0.15 0.10 0.08 0.06 0.06 0.06 0.07 0.08 0.11 0.15 0.18 0.18 0.17 0.17 0.20 0.20 0.26 0.33 0.26 0.15 0.16 0.20 0.30 0.30 0.28
0.16 0.15 0.13 0.13 0.11 0.08 0.08 0.08 0.08 0.10 0.08 0.09 0.13 0.11 0.11 0.10 0.08 0.09 0.09 0.08 0.11 0.11 0.10 0.11 0.13 0.09 0.08 0.06 0.07 0.11 0.22 0.31 0.22 0.14 0.14 0.11 0.11 0.13
0.13 0.13 0.10 0.08 0.08 0.08 0.07 0.06 0.05 0.08 0.08 0.09 0.08 0.10 0.12 0.14 0.15 0.12 0.10 0.08 0.07 0.07 0.07 0.10 0.11 0.07 0.05 0.05 0.06 0.08 0.11 0.14 0.14 0.09 0.08 0.10 0.07 0.09

GFSNE_prec_precacc_030.txt.gz
Total_Precipitation_Accumulation
0.24 0.21 0.19 0.17 0.14 0.12 0.10 0.10 0.15 0.07 0.01 0.00 0.02 0.05 0.09 0.10 0.09 0.17 0.25 0.19 0.14 0.12 0.12 0.12 0.12 0.20 0.36 0.36 0.38 0.58 0.81 0.90 0.78 0.68 0.56 0.53 0.62 0.69
0.08 0.07 0.06 0.05 0.05 0.06 0.05 0.03 0.03 0.04 0.02 0.00 0.00 0.00 0.00 0.03 0.08 0.15 0.31 0.41 0.25 0.19 0.20 0.20 0.21 0.20 0.19 0.37 0.62 0.64 0.66 0.76 0.84 0.87 0.89 0.68 0.61 0.65
0.01 0.01 0.01 0.01 0.01 0.01 0.02 0.02 0.03 0.03 0.02 0.00 0.00 0.00 0.00 0.01 0.03 0.10 0.22 0.41 0.52 0.36 0.23 0.25 0.27 0.28 0.31 0.26 0.32 0.66 0.93 0.77 0.62 0.64 0.68 0.76 0.79 0.71
0.00 0.00 0.00 0.00 0.00 0.00 0.01 0.01 0.01 0.01 0.02 0.01 0.00 0.00 0.00 0.00 0.00 0.02 0.10 0.24 0.42 0.53 0.49 0.31 0.24 0.28 0.33 0.43 0.42 0.38 0.49 0.89 0.84 0.64 0.59 0.66 0.76 0.89
0.00 0.00 0.00 0.00 0.00 0.00 0.00 0.01 0.01 0.01 0.01 0.01 0.00 0.00 0.00 0.00 0.00 0.01 0.03 0.07 0.16 0.30 0.43 0.55 0.44 0.27 0.25 0.30 0.39 0.48 0.43 0.38 0.64 0.85 0.67 0.59 0.59 0.68
0.00 0.00 0.00 0.00 0.00 0.00 0.00 0.00 0.01 0.02 0.02 0.02 0.00 0.00 0.00 0.00 0.01 0.02 0.03 0.05 0.05 0.13 0.30 0.49 0.55 0.48 0.31 0.23 0.27 0.30 0.38 0.50 0.47 0.54 0.83 0.76 0.62 0.60
0.00 0.00 0.00 0.00 0.00 0.00 0.00 0.00 0.01 0.02 0.02 0.04 0.03 0.02 0.01 0.01 0.02 0.03 0.03 0.04 0.06 0.08 0.18 0.36 0.52 0.59 0.60 0.37 0.21 0.23 0.29 0.32 0.41 0.49 0.52 0.70 0.81 0.62
0.01 0.00 0.00 0.00 0.01 0.00 0.00 0.00 0.00 0.03 0.06 0.07 0.06 0.05 0.02 0.02 0.03 0.06 0.07 0.06 0.07 0.08 0.11 0.24 0.40 0.52 0.65 0.67 0.48 0.34 0.27 0.31 0.33 0.38 0.48 0.48 0.51 0.72
0.01 0.01 0.01 0.00 0.00 0.01 0.01 0.01 0.01 0.01 0.02 0.04 0.08 0.05 0.03 0.02 0.04 0.10 0.09 0.09 0.07 0.04 0.09 0.19 0.31 0.43 0.49 0.67 0.72 0.51 0.44 0.45 0.47 0.46 0.45 0.51 0.47 0.46
0.01 0.01 0.02 0.01 0.01 0.02 0.04 0.08 0.06 0.04 0.03 0.02 0.06 0.04 0.02 0.03 0.06 0.10 0.13 0.14 0.10 0.03 0.07 0.18 0.24 0.35 0.37 0.45 0.66 0.86 0.73 0.61 0.63 0.68 0.63 0.56 0.61 0.55
0.01 0.02 0.04 0.05 0.03 0.04 0.19 0.31 0.15 0.06 0.03 0.04 0.04 0.03 0.02 0.02 0.03 0.17 0.25 0.28 0.21 0.07 0.06 0.14 0.15 0.24 0.36 0.50 0.63 0.69 0.88 0.96 0.79 0.75 0.78 0.69 0.63 0.67
0.05 0.04 0.03 0.03 0.07 0.08 0.31 0.38 0.32 0.07 0.03 0.06 0.06 0.04 0.02 0.04 0.04 0.21 0.31 0.29 0.21 0.16 0.05 0.11 0.12 0.15 0.33 0.45 0.48 0.69 0.81 0.86 0.93 0.86 0.74 0.75 0.72 0.71
0.09 0.06 0.06 0.18 0.23 0.16 0.18 0.29 0.19 0.07 0.06 0.09 0.10 0.09 0.07 0.04 0.03 0.05 0.14 0.31 0.30 0.16 0.01 0.11 0.13 0.12 0.20 0.29 0.43 0.51 0.61 0.79 0.87 0.95 0.94 0.81 0.74 0.69
0.20 0.16 0.19 0.13 0.13 0.12 0.14 0.17 0.14 0.16 0.24 0.26 0.23 0.16 0.16 0.11 0.08 0.07 0.09 0.13 0.16 0.16 0.06 0.16 0.15 0.07 0.15 0.25 0.27 0.46 0.60 0.68 0.71 0.84 0.93 0.99 0.94 0.87
0.24 0.20 0.12 0.09 0.06 0.07 0.08 0.12 0.15 0.27 0.31 0.27 0.22 0.13 0.08 0.08 0.09 0.13 0.15 0.15 0.20 0.20 0.14 0.16 0.17 0.08 0.15 0.20 0.19 0.27 0.44 0.68 0.70 0.68 0.73 0.77 0.75 0.73
0.12 0.11 0.12 0.11 0.10 0.15 0.19 0.19 0.30 0.39 0.33 0.26 0.15 0.13 0.15 0.18 0.19 0.17 0.22 0.24 0.39 0.30 0.25 0.21 0.16 0.18 0.26 0.17 0.10 0.18 0.26 0.43 0.56 0.62 0.65 0.73 0.75 0.68
0.15 0.17 0.12 0.09 0.08 0.09 0.13 0.09 0.11 0.11 0.16 0.16 0.16 0.15 0.21 0.16 0.16 0.22 0.25 0.22 0.34 0.24 0.24 0.29 0.30 0.32 0.27 0.20 0.25 0.17 0.18 0.24 0.35 0.46 0.53 0.62 0.69 0.79
0.17 0.15 0.14 0.14 0.15 0.13 0.16 0.19 0.10 0.09 0.08 0.09 0.16 0.13 0.17 0.22 0.14 0.13 0.18 0.25 0.19 0.24 0.24 0.27 0.35 0.47 0.47 0.34 0.17 0.11 0.19 0.22 0.28 0.34 0.38 0.44 0.50 0.56
0.14 0.16 0.17 0.18 0.17 0.14 0.14 0.18 0.21 0.23 0.16 0.14 0.19 0.20 0.13 0.15 0.24 0.18 0.20 0.31 0.30 0.21 0.29 0.35 0.36 0.41 0.41 0.28 0.28 0.17 0.16 0.16 0.26 0.35 0.40 0.39 0.33 0.43
0.13 0.16 0.17 0.17 0.15 0.11 0.10 0.14 0.16 0.17 0.16 0.17 0.24 0.17 0.13 0.08 0.12 0.14 0.16 0.16 0.19 0.18 0.17 0.22 0.23 0.26 0.33 0.34 0.42 0.29 0.24 0.19 0.24 0.29 0.38 0.44 0.43 0.46
0.15 0.15 0.17 0.14 0.11 0.10 0.10 0.11 0.14 0.16 0.16 0.17 0.19 0.17 0.13 0.11 0.08 0.07 0.08 0.08 0.10 0.13 0.17 0.19 0.18 0.17 0.18 0.23 0.30 0.32 0.35 0.27 0.17 0.21 0.27 0.42 0.36 0.31
0.16 0.15 0.14 0.13 0.11 0.08 0.09 0.09 0.09 0.10 0.09 0.10 0.14 0.13 0.14 0.13 0.11 0.11 0.10 0.09 0.13 0.13 0.11 0.12 0.14 0.10 0.08 0.09 0.13 0.13 0.25 0.33 0.24 0.17 0.17 0.17 0.19 0.24
0.13 0.13 0.10 0.08 0.09 0.08 0.08 0.07 0.06 0.08 0.09 0.09 0.09 0.11 0.15 0.16 0.16 0.14 0.12 0.10 0.09 0.08 0.08 0.11 0.12 0.07 0.05 0.05 0.08 0.09 0.12 0.16 0.21 0.13 0.11 0.14 0.10 0.13

GFSNE_prec_precacc_033.txt.gz
Total_Precipitation_Accumulation
0.24 0.22 0.20 0.20 0.20 0.16 0.13 0.16 0.21 0.10 0.01 0.00 0.02 0.05 0.11 0.15 0.21 0.33 0.43 0.35 0.24 0.17 0.14 0.12 0.12 0.20 0.36 0.36 0.38 0.58 0.81 0.90 0.78 0.68 0.56 0.53 0.62 0.69
0.08 0.07 0.06 0.05 0.06 0.07 0.08 0.06 0.05 0.05 0.02 0.00 0.00 0.00 0.00 0.03 0.09 0.19 0.39 0.46 0.29 0.22 0.22 0.21 0.21 0.20 0.19 0.37 0.62 0.64 0.66 0.76 0.84 0.87 0.89 0.68 0.61 0.65
0.02 0.02 0.01 0.01 0.01 0.01 0.02 0.03 0.04 0.05 0.02 0.00 0.00 0.00 0.00 0.01 0.03 0.10 0.22 0.42 0.53 0.36 0.23 0.25 0.27 0.28 0.31 0.26 0.32 0.66 0.93 0.77 0.62 0.64 0.68 0.76 0.79 0.71
0.00 0.00 0.00 0.00 0.00 0.00 0.01 0.01 0.01 0.01 0.02 0.01 0.00 0.00 0.00 0.00 0.00 0.02 0.10 0.24 0.42 0.53 0.49 0.31 0.24 0.28 0.33 0.43 0.42 0.38 0.49 0.89 0.84 0.64 0.59 0.66 0.76 0.89
0.00 0.00 0.00 0.00 0.00 0.00 0.00 0.01 0.01 0.01 0.01 0.01 0.00 0.00 0.00 0.00 0.00 0.01 0.03 0.07 0.16 0.30 0.43 0.55 0.44 0.27 0.25 0.30 0.39 0.48 0.43 0.38 0.64 0.85 0.67 0.59 0.59 0.68
0.00 0.00 0.00 0.00 0.00 0.00 0.00 0.00 0.01 0.02 0.02 0.02 0.00 0.00 0.00 0.00 0.01 0.02 0.03 0.05 0.05 0.13 0.30 0.49 0.55 0.48 0.31 0.23 0.27 0.30 0.38 0.50 0.47 0.54 0.83 0.76 0.62 0.60
0.00 0.00 0.00 0.00 0.00 0.00 0.01 0.00 0.01 0.02 0.02 0.04 0.03 0.02 0.01 0.01 0.02 0.03 0.03 0.04 0.06 0.08 0.18 0.36 0.52 0.59 0.60 0.37 0.21 0.23 0.29 0.32 0.41 0.49 0.52 0.70 0.81 0.62
0.01 0.00 0.00 0.00 0.01 0.01 0.00 0.00 0.00 0.03 0.06 0.07 0.06 0.05 0.02 0.02 0.03 0.06 0.07 0.06 0.07 0.08 0.11 0.24 0.40 0.52 0.65 0.67 0.48 0.34 0.27 0.31 0.33 0.38 0.48 0.48 0.51 0.72
0.01 0.01 0.01 0.00 0.00 0.01 0.01 0.01 0.01 0.01 0.02 0.04 0.08 0.05 0.03 0.02 0.04 0.10 0.09 0.09 0.07 0.04 0.09 0.19 0.31 0.43 0.49 0.67 0.72 0.51 0.44 0.45 0.47 0.46 0.45 0.51 0.47 0.46
0.01 0.01 0.02 0.01 0.01 0.02 0.04 0.08 0.06 0.04 0.03 0.03 0.06 0.05 0.03 0.03 0.07 0.10 0.15 0.17 0.12 0.04 0.07 0.18 0.24 0.35 0.37 0.45 0.66 0.86 0.73 0.61 0.63 0.68 0.63 0.56 0.61 0.55
0.01 0.02 0.04 0.05 0.03 0.04 0.20 0.32 0.15 0.06 0.03 0.05 0.05 0.04 0.03 0.04 0.04 0.20 0.27 0.28 0.21 0.07 0.06 0.14 0.15 0.25 0.36 0.50 0.63 0.69 0.88 0.96 0.79 0.75 0.78 0.69 0.63 0.67
0.05 0.04 0.03 0.03 0.09 0.14 0.35 0.39 0.32 0.07 0.03 0.06 0.06 0.04 0.02 0.04 0.04 0.21 0.31 0.31 0.21 0.18 0.05 0.11 0.12 0.16 0.33 0.45 0.48 0.69 0.81 0.86 0.93 0.86 0.74 0.75 0.72 0.71
0.09 0.06 0.06 0.19 0.24 0.18 0.19 0.30 0.20 0.08 0.07 0.09 0.10 0.09 0.07 0.04 0.03 0.06 0.18 0.36 0.34 0.19 0.01 0.14 0.14 0.12 0.21 0.29 0.43 0.51 0.61 0.79 0.87 0.95 0.94 0.81 0.74 0.69
0.21 0.16 0.20 0.14 0.16 0.15 0.15 0.19 0.16 0.18 0.25 0.28 0.25 0.17 0.17 0.12 0.08 0.08 0.10 0.14 0.18 0.19 0.07 0.18 0.21 0.09 0.17 0.28 0.28 0.46 0.60 0.68 0.71 0.84 0.93 1.00 0.94 0.87
0.24 0.21 0.13 0.12 0.09 0.08 0.11 0.16 0.17 0.31 0.35 0.31 0.25 0.15 0.10 0.09 0.10 0.14 0.15 0.15 0.20 0.20 0.14 0.17 0.18 0.09 0.16 0.21 0.19 0.27 0.44 0.68 0.71 0.68 0.74 0.77 0.75 0.73
0.12 0.11 0.14 0.13 0.11 0.16 0.21 0.20 0.33 0.42 0.34 0.28 0.16 0.14 0.16 0.19 0.19 0.18 0.22 0.24 0.39 0.30 0.25 0.21 0.16 0.18 0.26 0.17 0.10 0.18 0.26 0.43 0.56 0.62 0.65 0.73 0.75 0.68
0.15 0.18 0.13 0.09 0.09 0.10 0.14 0.10 0.12 0.12 0.17 0.16 0.17 0.16 0.21 0.16 0.16 0.22 0.25 0.22 0.34 0.24 0.24 0.29 0.30 0.32 0.27 0.20 0.26 0.17 0.18 0.24 0.35 0.46 0.53 0.62 0.69 0.79
0.17 0.16 0.14 0.15 0.16 0.15 0.18 0.20 0.11 0.11 0.10 0.11 0.18 0.14 0.17 0.22 0.14 0.13 0.18 0.25 0.19 0.25 0.24 0.28 0.36 0.48 0.48 0.35 0.19 0.11 0.20 0.23 0.28 0.35 0.39 0.45 0.51 0.56
0.14 0.16 0.18 0.19 0.18 0.15 0.15 0.19 0.23 0.26 0.17 0.15 0.20 0.20 0.13 0.16 0.25 0.18 0.20 0.31 0.30 0.21 0.30 0.37 0.37 0.42 0.43 0.29 0.29 0.18 0.18 0.18 0.29 0.35 0.41 0.40 0.36 0.45
0.13 0.17 0.18 0.18 0.16 0.11 0.10 0.14 0.16 0.18 0.16 0.17 0.24 0.18 0.13 0.10 0.12 0.14 0.16 0.16 0.19 0.19 0.17 0.22 0.23 0.26 0.33 0.34 0.43 0.29 0.24 0.20 0.26 0.30 0.38 0.45 0.46 0.48
0.15 0.15 0.17 0.15 0.11 0.10 0.10 0.11 0.14 0.16 0.16 0.17 0.19 0.18 0.13 0.13 0.09 0.09 0.08 0.08 0.10 0.13 0.17 0.19 0.18 0.17 0.18 0.23 0.32 0.32 0.35 0.27 0.17 0.21 0.28 0.43 0.39 0.34
0.16 0.15 0.14 0.13 0.11 0.08 0.09 0.09 0.09 0.10 0.09 0.10 0.14 0.13 0.14 0.14 0.12 0.13 0.11 0.10 0.13 0.13 0.12 0.12 0.14 0.10 0.08 0.09 0.15 0.13 0.25 0.33 0.25 0.17 0.18 0.20 0.24 0.28
0.13 0.13 0.10 0.08 0.09 0.08 0.08 0.07 0.06 0.08 0.09 0.09 0.09 0.11 0.15 0.16 0.16 0.15 0.12 0.10 0.09 0.08 0.08 0.11 0.12 0.08 0.05 0.05 0.09 0.09 0.12 0.17 0.22 0.13 0.11 0.15 0.12 0.15

GFSNE_prec_precacc_036.txt.gz
Total_Precipitation_Accumulation
0.24 0.22 0.20 0.20 0.20 0.16 0.15 0.19 0.27 0.12 0.01 0.00 0.02 0.05 0.11 0.15 0.21 0.35 0.47 0.44 0.35 0.33 0.33 0.24 0.16 0.22 0.37 0.36 0.38 0.58 0.81 0.90 0.78 0.68 0.56 0.53 0.62 0.69
0.09 0.08 0.07 0.06 0.06 0.08 0.09 0.07 0.07 0.07 0.03 0.00 0.00 0.00 0.00 0.03 0.09 0.19 0.40 0.51 0.34 0.28 0.32 0.34 0.30 0.24 0.21 0.39 0.63 0.64 0.66 0.76 0.84 0.87 0.89 0.68 0.61 0.65
0.02 0.02 0.01 0.01 0.01 0.01 0.02 0.03 0.04 0.05 0.03 0.00 0.00 0.00 0.00 0.01 0.03 0.10 0.22 0.43 0.54 0.38 0.26 0.29 0.33 0.31 0.32 0.27 0.32 0.66 0.93 0.77 0.62 0.64 0.68 0.76 0.79 0.71
0.00 0.00 0.00 0.00 0.00 0.00 0.01 0.01 0.01 0.01 0.02 0.01 0.00 0.00 0.00 0.00 0.00 0.02 0.10 0.24 0.42 0.53 0.49 0.31 0.25 0.28 0.33 0.43 0.42 0.38 0.49 0.89 0.84 0.64 0.59 0.66 0.76 0.89
0.00 0.00 0.00 0.00 0.00 0.00 0.00 0.01 0.01 0.01 0.01 0.01 0.00 0.00 0.00 0.00 0.00 0.01 0.03 0.07 0.16 0.30 0.43 0.55 0.44 0.27 0.26 0.30 0.39 0.48 0.43 0.38 0.64 0.85 0.67 0.59 0.59 0.68
0.00 0.00 0.00 0.00 0.00 0.00 0.00 0.00 0.01 0.02 0.02 0.02 0.00 0.00 0.00 0.00 0.01 0.02 0.03 0.05 0.05 0.13 0.30 0.49 0.55 0.48 0.31 0.23 0.27 0.30 0.38 0.50 0.47 0.54 0.83 0.76 0.62 0.60
0.00 0.00 0.00 0.00 0.00 0.00 0.01 0.00 0.01 0.02 0.02 0.04 0.03 0.02 0.01 0.01 0.02 0.03 0.03 0.04 0.06 0.08 0.18 0.36 0.52 0.59 0.60 0.37 0.21 0.23 0.29 0.32 0.41 0.49 0.52 0.70 0.81 0.62
0.01 0.00 0.00 0.00 0.01 0.01 0.00 0.00 0.01 0.03 0.06 0.07 0.06 0.05 0.02 0.02 0.03 0.06 0.07 0.06 0.07 0.08 0.11 0.24 0.40 0.52 0.65 0.67 0.48 0.34 0.27 0.31 0.33 0.38 0.48 0.48 0.51 0.72
0.01 0.01 0.01 0.00 0.00 0.01 0.01 0.01 0.01 0.01 0.03 0.05 0.09 0.05 0.03 0.02 0.04 0.10 0.09 0.09 0.07 0.04 0.09 0.19 0.31 0.43 0.49 0.67 0.72 0.51 0.44 0.45 0.47 0.46 0.45 0.51 0.47 0.46
0.01 0.01 0.02 0.01 0.01 0.02 0.05 0.08 0.06 0.04 0.03 0.03 0.07 0.05 0.03 0.03 0.07 0.10 0.15 0.18 0.13 0.04 0.07 0.18 0.24 0.35 0.37 0.45 0.66 0.86 0.73 0.61 0.63 0.68 0.63 0.56 0.61 0.55
0.01 0.02 0.04 0.06 0.03 0.05 0.23 0.34 0.16 0.06 0.03 0.05 0.05 0.05 0.04 0.04 0.05 0.23 0.31 0.31 0.22 0.07 0.06 0.14 0.15 0.25 0.36 0.50 0.63 0.69 0.88 0.96 0.79 0.75 0.78 0.69 0.63 0.67
0.05 0.04 0.03 0.03 0.09 0.15 0.37 0.41 0.33 0.07 0.03 0.06 0.06 0.04 0.02 0.04 0.04 0.21 0.31 0.31 0.22 0.19 0.05 0.12 0.12 0.16 0.34 0.45 0.48 0.69 0.81 0.86 0.93 0.86 0.74 0.75 0.72 0.71
0.10 0.06 0.06 0.19 0.26 0.20 0.22 0.33 0.22 0.09 0.08 0.10 0.11 0.10 0.08 0.06 0.05 0.09 0.23 0.45 0.38 0.22 0.01 0.15 0.15 0.12 0.21 0.29 0.43 0.51 0.61 0.79 0.87 0.95 0.94 0.81 0.74 0.69
0.21 0.16 0.21 0.16 0.18 0.16 0.17 0.23 0.19 0.19 0.27 0.31 0.28 0.20 0.21 0.15 0.11 0.11 0.12 0.15 0.19 0.19 0.07 0.21 0.25 0.09 0.17 0.28 0.28 0.46 0.60 0.68 0.71 0.84 0.93 1.00 0.94 0.87
0.24 0.22 0.16 0.13 0.09 0.08 0.12 0.17 0.18 0.32 0.37 0.33 0.28 0.18 0.12 0.12 0.12 0.16 0.16 0.16 0.20 0.20 0.14 0.18 0.20 0.10 0.17 0.22 0.20 0.27 0.44 0.68 0.71 0.68 0.74 0.77 0.75 0.73
0.12 0.11 0.15 0.13 0.11 0.17 0.22 0.21 0.35 0.44 0.36 0.30 0.18 0.15 0.17 0.19 0.19 0.19 0.22 0.24 0.39 0.30 0.25 0.21 0.16 0.18 0.27 0.17 0.10 0.18 0.26 0.43 0.56 0.62 0.65 0.73 0.75 0.68
0.16 0.18 0.13 0.09 0.09 0.10 0.15 0.12 0.14 0.13 0.18 0.17 0.18 0.16 0.22 0.16 0.17 0.23 0.25 0.22 0.34 0.24 0.24 0.29 0.30 0.32 0.27 0.22 0.29 0.18 0.19 0.24 0.35 0.46 0.53 0.62 0.69 0.79
0.17 0.16 0.15 0.15 0.17 0.16 0.19 0.21 0.12 0.12 0.11 0.12 0.18 0.15 0.17 0.23 0.15 0.13 0.18 0.25 0.19 0.25 0.24 0.28 0.36 0.48 0.48 0.36 0.22 0.12 0.20 0.24 0.28 0.35 0.40 0.47 0.51 0.56
0.14 0.17 0.18 0.20 0.19 0.16 0.15 0.19 0.24 0.27 0.18 0.16 0.21 0.22 0.15 0.17 0.26 0.18 0.20 0.31 0.30 0.21 0.31 0.38 0.37 0.42 0.43 0.29 0.29 0.19 0.18 0.18 0.30 0.36 0.41 0.41 0.37 0.45
0.14 0.17 0.19 0.19 0.17 0.11 0.10 0.14 0.16 0.18 0.17 0.17 0.25 0.19 0.14 0.11 0.13 0.14 0.16 0.17 0.19 0.19 0.17 0.22 0.23 0.26 0.33 0.35 0.44 0.30 0.25 0.20 0.26 0.31 0.39 0.46 0.46 0.49
0.15 0.15 0.18 0.15 0.11 0.10 0.10 0.11 0.14 0.16 0.16 0.17 0.20 0.18 0.14 0.14 0.10 0.09 0.08 0.09 0.10 0.13 0.17 0.19 0.18 0.17 0.18 0.23 0.34 0.33 0.35 0.27 0.17 0.22 0.28 0.44 0.39 0.34
0.16 0.15 0.14 0.13 0.11 0.08 0.09 0.09 0.09 0.10 0.09 0.10 0.14 0.13 0.15 0.14 0.12 0.13 0.11 0.10 0.13 0.13 0.12 0.12 0.14 0.10 0.08 0.09 0.15 0.13 0.25 0.33 0.25 0.17 0.19 0.21 0.26 0.30
0.13 0.13 0.10 0.08 0.09 0.08 0.08 0.07 0.06 0.08 0.09 0.09 0.09 0.12 0.15 0.16 0.16 0.15 0.12 0.10 0.09 0.08 0.08 0.11 0.12 0.08 0.05 0.06 0.10 0.10 0.12 0.17 0.22 0.13 0.11 0.16 0.13 0.16

GFSNE_prec_precacc_039.txt.gz
Total_Precipitation_Accumulation
0.24 0.23 0.21 0.22 0.20 0.17 0.16 0.21 0.30 0.14 0.01 0.00 0.02 0.05 0.11 0.15 0.21 0.35 0.47 0.44 0.37 0.35 0.38 0.32 0.24 0.26 0.43 0.44 0.43 0.59 0.81 0.90 0.78 0.68 0.56 0.53 0.62 0.69
0.09 0.08 0.07 0.06 0.06 0.08 0.09 0.08 0.08 0.08 0.03 0.00 0.00 0.00 0.00 0.03 0.09 0.19 0.40 0.51 0.34 0.29 0.35 0.41 0.43 0.39 0.34 0.49 0.71 0.67 0.66 0.76 0.84 0.87 0.89 0.68 0.61 0.65
0.02 0.02 0.01 0.01 0.01 0.01 0.02 0.03 0.04 0.05 0.03 0.00 0.00 0.00 0.00 0.01 0.03 0.10 0.22 0.43 0.54 0.38 0.27 0.32 0.41 0.46 0.47 0.37 0.39 0.71 0.96 0.78 0.63 0.64 0.68 0.76 0.79 0.71
0.00 0.00 0.00 0.00 0.00 0.00 0.01 0.01 0.01 0.01 0.02 0.01 0.00 0.00 0.00 0.00 0.00 0.02 0.10 0.24 0.42 0.53 0.49 0.31 0.26 0.32 0.39 0.46 0.44 0.40 0.51 0.91 0.85 0.65 0.60 0.66 0.76 0.89
0.00 0.00 0.00 0.00 0.00 0.00 0.00 0.01 0.01 0.01 0.01 0.01 0.00 0.00 0.00 0.00 0.00 0.01 0.03 0.07 0.16 0.30 0.43 0.55 0.44 0.27 0.26 0.31 0.39 0.48 0.43 0.39 0.64 0.85 0.67 0.59 0.59 0.68
0.00 0.00 0.00 0.00 0.00 0.00 0.00 0.01 0.01 0.02 0.02 0.02 0.00 0.00 0.00 0.00 0.01 0.02 0.03 0.05 0.05 0.13 0.30 0.49 0.55 0.48 0.31 0.23 0.27 0.31 0.38 0.50 0.47 0.54 0.83 0.76 0.62 0.60
0.00 0.00 0.00 0.00 0.00 0.00 0.01 0.00 0.02 0.03 0.02 0.04 0.03 0.02 0.01 0.01 0.02 0.03 0.03 0.04 0.06 0.08 0.18 0.36 0.52 0.59 0.60 0.37 0.21 0.23 0.29 0.32 0.41 0.49 0.52 0.70 0.81 0.62
0.01 0.00 0.00 0.00 0.01 0.01 0.00 0.00 0.01 0.04 0.06 0.07 0.07 0.05 0.02 0.02 0.03 0.06 0.07 0.06 0.07 0.08 0.11 0.24 0.40 0.52 0.65 0.67 0.48 0.34 0.27 0.31 0.33 0.38 0.48 0.48 0.51 0.72
0.01 0.01 0.01 0.00 0.00 0.01 0.01 0.01 0.01 0.01 0.03 0.05 0.10 0.06 0.03 0.02 0.04 0.10 0.09 0.09 0.07 0.04 0.09 0.19 0.31 0.43 0.49 0.67 0.72 0.51 0.44 0.45 0.47 0.46 0.45 0.51 0.47 0.46
0.01 0.01 0.02 0.01 0.01 0.02 0.05 0.09 0.06 0.04 0.03 0.03 0.07 0.05 0.03 0.04 0.07 0.11 0.15 0.19 0.13 0.04 0.07 0.19 0.24 0.35 0.37 0.45 0.66 0.86 0.73 0.61 0.63 0.68 0.63 0.56 0.61 0.55
0.01 0.02 0.04 0.06 0.03 0.06 0.24 0.34 0.16 0.06 0.03 0.05 0.05 0.05 0.05 0.06 0.08 0.26 0.32 0.32 0.23 0.07 0.06 0.14 0.15 0.25 0.36 0.50 0.63 0.69 0.88 0.96 0.79 0.75 0.78 0.69 0.63 0.67
0.05 0.04 0.03 0.03 0.10 0.16 0.41 0.43 0.35 0.08 0.03 0.06 0.06 0.04 0.02 0.04 0.04 0.21 0.31 0.31 0.22 0.19 0.05 0.12 0.12 0.16 0.34 0.45 0.48 0.69 0.81 0.86 0.93 0.86 0.74 0.75 0.72 0.71
0.10 0.06 0.06 0.20 0.27 0.21 0.23 0.35 0.27 0.11 0.09 0.11 0.12 0.11 0.09 0.07 0.07 0.10 0.24 0.46 0.40 0.23 0.01 0.16 0.15 0.12 0.21 0.29 0.43 0.51 0.61 0.79 0.87 0.95 0.94 0.81 0.74 0.69
0.21 0.16 0.22 0.17 0.18 0.16 0.18 0.25 0.21 0.20 0.28 0.33 0.31 0.22 0.24 0.18 0.15 0.14 0.14 0.17 0.19 0.20 0.07 0.23 0.28 0.09 0.18 0.29 0.28 0.46 0.60 0.68 0.71 0.84 0.93 1.00 0.94 0.87
0.24 0.23 0.16 0.13 0.09 0.08 0.13 0.19 0.20 0.34 0.38 0.34 0.29 0.19 0.14 0.14 0.14 0.18 0.20 0.20 0.22 0.20 0.14 0.19 0.23 0.11 0.19 0.23 0.20 0.27 0.44 0.68 0.71 0.68 0.74 0.77 0.75 0.73
0.12 0.11 0.15 0.13 0.11 0.17 0.22 0.22 0.37 0.46 0.38 0.32 0.20 0.16 0.18 0.20 0.21 0.21 0.24 0.25 0.39 0.30 0.25 0.21 0.17 0.20 0.28 0.17 0.10 0.18 0.26 0.43 0.56 0.62 0.65 0.73 0.75 0.68
0.16 0.18 0.13 0.09 0.09 0.11 0.15 0.13 0.15 0.14 0.19 0.19 0.19 0.17 0.23 0.17 0.19 0.24 0.25 0.22 0.34 0.24 0.25 0.29 0.30 0.32 0.28 0.23 0.31 0.18 0.19 0.25 0.35 0.46 0.53 0.62 0.69 0.79
0.17 0.16 0.15 0.15 0.17 0.16 0.19 0.21 0.12 0.13 0.11 0.13 0.20 0.16 0.19 0.25 0.16 0.14 0.18 0.25 0.19 0.25 0.25 0.28 0.36 0.48 0.49 0.36 0.23 0.13 0.21 0.24 0.28 0.35 0.40 0.47 0.51 0.56
0.14 0.17 0.18 0.20 0.19 0.16 0.15 0.19 0.24 0.27 0.18 0.16 0.23 0.23 0.16 0.18 0.27 0.18 0.20 0.31 0.30 0.22 0.33 0.38 0.37 0.42 0.43 0.29 0.29 0.19 0.18 0.18 0.30 0.36 0.42 0.42 0.37 0.45
0.14 0.17 0.19 0.19 0.17 0.11 0.11 0.14 0.16 0.18 0.17 0.17 0.26 0.20 0.15 0.12 0.14 0.15 0.16 0.17 0.19 0.19 0.17 0.22 0.23 0.27 0.33 0.35 0.44 0.30 0.25 0.20 0.26 0.31 0.39 0.46 0.47 0.49
0.15 0.15 0.18 0.15 0.11 0.10 0.10 0.11 0.14 0.16 0.16 0.17 0.20 0.18 0.14 0.14 0.11 0.10 0.08 0.09 0.10 0.13 0.17 0.19 0.18 0.17 0.18 0.24 0.34 0.33 0.35 0.27 0.18 0.22 0.28 0.44 0.40 0.34
0.16 0.15 0.14 0.13 0.11 0.08 0.09 0.09 0.09 0.10 0.09 0.10 0.14 0.13 0.15 0.15 0.13 0.14 0.11 0.10 0.13 0.13 0.12 0.12 0.14 0.10 0.08 0.09 0.16 0.14 0.25 0.33 0.25 0.17 0.19 0.22 0.27 0.31
0.13 0.13 0.10 0.08 0.09 0.08 0.08 0.07 0.06 0.08 0.09 0.09 0.09 0.12 0.15 0.16 0.16 0.15 0.12 0.10 0.09 0.08 0.08 0.11 0.12 0.08 0.05 0.06 0.11 0.10 0.12 0.17 0.22 0.13 0.11 0.16 0.14 0.16

GFSNE_prec_precacc_042.txt.gz
Total_Precipitation_Accumulation
0.24 0.23 0.21 0.22 0.21 0.17 0.16 0.21 0.31 0.15 0.01 0.00 0.02 0.05 0.11 0.15 0.21 0.35 0.47 0.44 0.37 0.35 0.38 0.33 0.25 0.28 0.50 0.62 0.65 0.78 0.94 0.91 0.78 0.68 0.56 0.53 0.62 0.69
0.09 0.08 0.07 0.06 0.06 0.08 0.09 0.08 0.08 0.09 0.04 0.00 0.00 0.00 0.00 0.03 0.09 0.19 0.40 0.51 0.34 0.29 0.35 0.41 0.44 0.42 0.38 0.57 0.83 0.85 0.80 0.79 0.85 0.87 0.89 0.68 0.61 0.65
0.02 0.02 0.01 0.01 0.01 0.01 0.02 0.03 0.04 0.05 0.03 0.00 0.00 0.00 0.00 0.01 0.03 0.10 0.22 0.43 0.54 0.38 0.27 0.32 0.41 0.47 0.52 0.46 0.48 0.79 1.05 0.86 0.67 0.66 0.68 0.76 0.79 0.71
0.00 0.00 0.00 0.00 0.00 0.00 0.01 0.01 0.01 0.01 0.02 0.01 0.00 0.00 0.00 0.00 0.00 0.02 0.10 0.24 0.42 0.53 0.49 0.31 0.26 0.33 0.42 0.55 0.54 0.49 0.60 0.97 0.90 0.68 0.61 0.66 0.76 0.89
0.00 0.00 0.00 0.00 0.00 0.00 0.00 0.01 0.01 0.01 0.02 0.02 0.00 0.00 0.00 0.00 0.00 0.01 0.03 0.07 0.16 0.30 0.43 0.55 0.44 0.27 0.27 0.31 0.41 0.51 0.45 0.41 0.69 0.87 0.68 0.61 0.59 0.68
0.00 0.00 0.00 0.00 0.00 0.00 0.00 0.01 0.01 0.02 0.02 0.03 0.01 0.00 0.00 0.00 0.01 0.02 0.03 0.05 0.05 0.13 0.30 0.49 0.55 0.48 0.31 0.23 0.27 0.31 0.39 0.51 0.48 0.57 0.85 0.77 0.62 0.61
0.00 0.00 0.00 0.00 0.00 0.01 0.01 0.00 0.02 0.03 0.03 0.05 0.03 0.02 0.01 0.01 0.02 0.03 0.03 0.04 0.06 0.08 0.18 0.36 0.52 0.59 0.60 0.37 0.21 0.23 0.29 0.32 0.41 0.49 0.52 0.71 0.81 0.62
0.01 0.00 0.00 0.00 0.01 0.01 0.00 0.00 0.01 0.04 0.07 0.09 0.08 0.06 0.03 0.02 0.03 0.06 0.07 0.06 0.07 0.08 0.11 0.24 0.40 0.52 0.65 0.67 0.48 0.34 0.27 0.31 0.33 0.38 0.48 0.48 0.51 0.72
0.01 0.01 0.01 0.00 0.00 0.01 0.01 0.01 0.01 0.01 0.04 0.08 0.14 0.07 0.04 0.02 0.05 0.10 0.09 0.09 0.07 0.04 0.09 0.19 0.31 0.43 0.49 0.67 0.72 0.51 0.44 0.45 0.47 0.46 0.45 0.51 0.47 0.46
0.01 0.01 0.02 0.01 0.01 0.02 0.06 0.10 0.06 0.04 0.03 0.03 0.08 0.06 0.03 0.04 0.08 0.11 0.16 0.19 0.13 0.04 0.07 0.20 0.24 0.35 0.37 0.45 0.66 0.86 0.73 0.61 0.63 0.68 0.63 0.56 0.61 0.55
0.01 0.02 0.04 0.06 0.04 0.07 0.27 0.36 0.16 0.06 0.03 0.05 0.06 0.05 0.05 0.06 0.09 0.30 0.38 0.36 0.24 0.07 0.06 0.14 0.15 0.25 0.36 0.50 0.63 0.69 0.88 0.96 0.79 0.75 0.78 0.69 0.63 0.67
0.05 0.04 0.03 0.04 0.11 0.18 0.42 0.44 0.36 0.08 0.03 0.06 0.06 0.04 0.02 0.04 0.04 0.22 0.31 0.32 0.22 0.19 0.05 0.12 0.12 0.16 0.34 0.45 0.48 0.69 0.81 0.86 0.93 0.86 0.74 0.75 0.72 0.71
0.10 0.06 0.06 0.20 0.28 0.21 0.24 0.37 0.30 0.13 0.10 0.12 0.14 0.13 0.12 0.10 0.10 0.12 0.25 0.46 0.40 0.23 0.01 0.16 0.15 0.12 0.21 0.29 0.43 0.51 0.61 0.79 0.87 0.95 0.94 0.81 0.74 0.69
0.21 0.16 0.22 0.18 0.18 0.16 0.18 0.26 0.22 0.21 0.29 0.33 0.31 0.23 0.25 0.20 0.18 0.19 0.18 0.20 0.20 0.20 0.08 0.25 0.30 0.10 0.19 0.29 0.28 0.46 0.60 0.68 0.71 0.84 0.93 1.00 0.94 0.87
0.24 0.23 0.16 0.13 0.09 0.08 0.13 0.19 0.20 0.34 0.38 0.34 0.29 0.19 0.15 0.15 0.15 0.20 0.25 0.26 0.25 0.23 0.18 0.26 0.25 0.12 0.21 0.25 0.20 0.27 0.44 0.68 0.71 0.68 0.74 0.77 0.75 0.73
0.12 0.11 0.15 0.13 0.11 0.17 0.22 0.23 0.38 0.47 0.40 0.33 0.21 0.17 0.19 0.21 0.23 0.23 0.26 0.30 0.44 0.32 0.27 0.23 0.18 0.26 0.31 0.19 0.12 0.19 0.26 0.43 0.56 0.62 0.65 0.73 0.75 0.68
0.16 0.18 0.13 0.09 0.09 0.11 0.15 0.13 0.15 0.14 0.19 0.20 0.20 0.18 0.24 0.19 0.21 0.26 0.27 0.23 0.35 0.25 0.26 0.30 0.31 0.34 0.30 0.26 0.32 0.18 0.19 0.25 0.35 0.46 0.53 0.62 0.69 0.79
0.17 0.16 0.15 0.16 0.17 0.16 0.19 0.21 0.12 0.13 0.11 0.13 0.21 0.17 0.20 0.26 0.18 0.15 0.19 0.25 0.20 0.27 0.26 0.29 0.36 0.48 0.50 0.37 0.24 0.14 0.22 0.24 0.28 0.35 0.40 0.48 0.51 0.56
0.14 0.17 0.18 0.20 0.19 0.16 0.16 0.19 0.24 0.27 0.18 0.16 0.23 0.24 0.17 0.19 0.28 0.19 0.20 0.31 0.30 0.23 0.33 0.38 0.37 0.42 0.43 0.29 0.29 0.19 0.19 0.19 0.30 0.36 0.42 0.42 0.38 0.45
0.14 0.17 0.19 0.19 0.17 0.11 0.11 0.14 0.16 0.18 0.17 0.17 0.26 0.20 0.16 0.13 0.15 0.15 0.16 0.17 0.20 0.19 0.17 0.22 0.23 0.27 0.33 0.35 0.45 0.30 0.25 0.20 0.26 0.31 0.39 0.46 0.47 0.49
0.15 0.15 0.18 0.15 0.11 0.10 0.11 0.11 0.14 0.16 0.16 0.17 0.20 0.19 0.15 0.14 0.11 0.10 0.09 0.09 0.10 0.13 0.17 0.19 0.18 0.17 0.19 0.25 0.34 0.34 0.36 0.27 0.18 0.22 0.28 0.44 0.40 0.34
0.16 0.15 0.14 0.13 0.11 0.08 0.09 0.09 0.09 0.10 0.09 0.10 0.14 0.13 0.15 0.15 0.13 0.14 0.12 0.10 0.13 0.13 0.12 0.12 0.14 0.10 0.09 0.10 0.16 0.15 0.25 0.33 0.25 0.17 0.19 0.22 0.28 0.31
0.13 0.13 0.10 0.08 0.09 0.08 0.08 0.07 0.06 0.08 0.09 0.09 0.09 0.12 0.15 0.16 0.16 0.15 0.12 0.10 0.09 0.08 0.08 0.11 0.12 0.08 0.06 0.06 0.12 0.11 0.12 0.17 0.23 0.13 0.11 0.16 0.14 0.17